Ignacio, CO

6:27 PM MST on December 05, 2016 (GMT -0700)
Durango-La Plata County

Weather History for KDRO - April, 2013

Change the Weather History Date:

Tuesday, April 2, 2013

  Actual Average Record
Temperature  
Mean Temperature 40 °F 42 °F  
Max Temperature 56 °F 57 °F 73 °F (2002)
Min Temperature 24 °F 26 °F 13 °F (1970)
Degree Days  
Heating Degree Days 25 23  
Month to date heating degree days 40 46  
Since 1 July heating degree days 6179 6075  
Cooling Degree Days 0 0  
Month to date cooling degree days 0 0  
Year to date cooling degree days 0 0  
Moisture  
Dew Point 18 °F    
Average Humidity 49    
Maximum Humidity 78    
Minimum Humidity 19    
Precipitation  
Precipitation T in 0.04 in 0.58 in (2004)
Month to date precipitation T 0.07  
Year to date precipitation 2.61 3.60  
Sea Level Pressure  
Sea Level Pressure 29.92 in    
Wind  
Wind Speed 6 mph (NW)    
Max Wind Speed 25 mph    
Max Gust Speed 35 mph    
Visibility 10 miles    
Events      
T = Trace of Precipitation, MM = Missing Value Source: NWS Daily Summary

Daily Weather History Graph

Daily Weather History Graph

Search for Another Location

Airport or City:

Trip Planner

Search our weather history database for the weather conditions in past years. The results will help you decide how hot, cold, wet, or windy it might be!

Date:

Astronomy

Apr. 02, 2013 Rise Set
Actual Time 6:54 AM MDT 7:34 PM MDT
Civil Twilight 6:28 AM MDT 8:01 PM MDT
Nautical Twilight 5:57 AM MDT 8:32 PM MDT
Astronomical Twilight 5:25 AM MDT 9:03 PM MDT
Moon 1:36 AM MDT (4/2) 11:54 AM MDT (4/2)
Length of Visible Light 13h 32m
Length of Day
12h 39m
Waning Gibbous, 55% of the Moon is Illuminated
Apr 2
Waning Gibbous
Apr 2
Last Quarter
Apr 10
New
Apr 18
First Quarter
Apr 25
Full

Hourly Weather History & Observations

Time (MDT) Temp. Windchill Dew Point Humidity Pressure Visibility Wind Dir Wind Speed Gust Speed Precip Events Conditions
12:53 AM 39.9 °F 37.8 °F 12.0 °F 32% 29.83 in 10.0 mi West 3.5 mph - N/A   Clear
1:53 AM 37.0 °F 34.5 °F 12.9 °F 37% 29.85 in 10.0 mi Variable 3.5 mph - N/A   Clear
2:53 AM 33.1 °F 30.0 °F 10.0 °F 38% 29.85 in 10.0 mi North 3.5 mph - N/A   Clear
3:53 AM 30.9 °F 25.2 °F 12.0 °F 46% 29.86 in 10.0 mi NE 5.8 mph - N/A   Clear
4:53 AM 28.0 °F 22.8 °F 10.9 °F 49% 29.88 in 10.0 mi ENE 4.6 mph - N/A   Clear
5:53 AM 26.1 °F 20.5 °F 9.0 °F 49% 29.90 in 10.0 mi NE 4.6 mph - N/A   Clear
6:53 AM 25.0 °F - 9.0 °F 51% 29.93 in 10.0 mi Calm Calm - N/A   Clear
7:53 AM 28.9 °F - 12.9 °F 51% 29.94 in 10.0 mi Calm Calm - N/A   Clear
8:53 AM 39.0 °F 35.7 °F 15.1 °F 38% 29.92 in 10.0 mi East 4.6 mph - N/A   Clear
9:53 AM 46.0 °F - 18.0 °F 33% 29.89 in 10.0 mi Calm Calm - N/A   Clear
10:53 AM 50.0 °F - 19.0 °F 29% 29.87 in 10.0 mi WNW 8.1 mph - N/A   Clear
11:53 AM 55.0 °F - 17.1 °F 23% 29.90 in 10.0 mi Variable 5.8 mph 16.1 mph N/A   Scattered Clouds
12:53 PM 54.0 °F - 14.0 °F 21% 29.86 in 10.0 mi South 12.7 mph 16.1 mph N/A   Partly Cloudy
1:25 PM 50.0 °F - 17.6 °F 28% 29.95 in 10.0 mi SW 11.5 mph 32.2 mph N/A   Mostly Cloudy
1:53 PM 51.1 °F - 17.1 °F 26% 29.88 in 10.0 mi NW 9.2 mph - N/A   Overcast
2:53 PM 55.0 °F - 15.1 °F 21% 29.86 in 10.0 mi WSW 16.1 mph 26.5 mph N/A   Mostly Cloudy
3:53 PM 54.0 °F - 12.0 °F 19% 29.87 in 10.0 mi SW 13.8 mph 23.0 mph N/A   Clear
4:53 PM 48.9 °F - 19.0 °F 31% 29.93 in 10.0 mi West 18.4 mph 34.5 mph N/A   Mostly Cloudy
5:30 PM 48.2 °F - 24.8 °F 40% 29.96 in 10.0 mi NNW 17.3 mph - 0.00 in   Overcast
5:53 PM 46.0 °F 41.0 °F 25.0 °F 44% 29.97 in 10.0 mi North 10.4 mph - 0.00 in   Mostly Cloudy
6:53 PM 44.1 °F 40.1 °F 28.0 °F 53% 30.01 in 10.0 mi NNW 6.9 mph - 0.00 in   Overcast
7:53 PM 44.1 °F 40.1 °F 26.1 °F 49% 29.98 in 10.0 mi West 6.9 mph - N/A   Clear
8:53 PM 39.9 °F 34.5 °F 28.9 °F 65% 29.97 in 10.0 mi NNW 8.1 mph - N/A   Clear
9:53 PM 37.9 °F - 28.0 °F 68% 29.97 in 10.0 mi Calm Calm - N/A   Clear
10:53 PM 34.0 °F 31.0 °F 26.1 °F 73% 29.99 in 10.0 mi SSW 3.5 mph - N/A   Clear
11:53 PM 30.9 °F - 24.1 °F 76% 29.98 in 10.0 mi Calm Calm - N/A   Clear